| time (UTC) | temp F | wind direction | speed MPH | gust MPH | rain 1hr in | rain 24hr in | rain mn in | humidity % | barometer mb |
| 20260504081354 | 42 | 296 | 0.0 | 0.0 | 0.00 | 0.00 | 0.00 | 68 | 988.6 |
| 20260504080850 | 43 | 277 | 2.0 | 4.0 | 0.00 | 0.00 | 0.00 | 64 | 988.4 |
| 20260504080348 | 43 | 276 | 2.0 | 2.0 | 0.00 | 0.00 | 0.00 | 62 | 988.2 |
| 20260504070315 | 44 | 239 | 5.0 | 7.0 | 0.00 | 0.00 | 0.00 | 59 | 988.1 |
| 20260504060235 | 45 | 297 | 1.0 | 2.0 | 0.00 | 0.00 | 0.00 | 58 | 988.1 |
| 20260504050703 | 46 | 278 | 1.0 | 1.0 | 0.00 | 0.00 | 0.00 | 59 | 988.5 |
| 20260504050200 | 47 | 304 | 2.0 | 2.0 | 0.00 | 0.00 | 0.00 | 59 | 988.6 |
| 20260504045657 | 46 | 280 | 1.0 | 2.0 | 0.00 | 0.00 | 0.00 | 58 | 988.5 |
| 20260504045152 | 46 | 247 | 0.0 | 0.0 | 0.00 | 0.00 | 0.00 | 62 | 988.4 |
| 20260504044650 | 47 | 289 | 0.0 | 1.0 | 0.00 | 0.00 | 0.00 | 60 | 988.5 |
| 20260504044146 | 46 | 282 | 1.0 | 1.0 | 0.00 | 0.00 | 0.00 | 61 | 988.6 |
| 20260504043643 | 46 | 289 | 0.0 | 1.0 | 0.00 | 0.00 | 0.00 | 60 | 988.5 |
| 20260504043141 | 46 | 303 | 2.0 | 2.0 | 0.00 | 0.00 | 0.00 | 59 | 988.4 |
| 20260504042638 | 46 | 295 | 0.0 | 0.0 | 0.00 | 0.00 | 0.00 | 67 | 988.5 |
| 20260504042134 | 47 | 278 | 0.0 | 0.0 | 0.00 | 0.00 | 0.00 | 63 | 988.6 |
| 20260504041630 | 46 | 290 | 0.0 | 0.0 | 0.00 | 0.00 | 0.00 | 63 | 988.5 |
| 20260504041127 | 46 | 278 | 0.0 | 1.0 | 0.00 | 0.00 | 0.00 | 67 | 988.7 |
| 20260504040624 | 46 | 292 | 0.0 | 1.0 | 0.00 | 0.00 | 0.00 | 61 | 988.7 |
| 20260504040121 | 47 | 293 | 0.0 | 1.0 | 0.00 | 0.00 | 0.00 | 61 | 988.7 |
| 20260504035617 | 47 | 295 | 0.0 | 0.0 | 0.00 | 0.00 | 0.00 | 61 | 988.7 |
| 20260504035114 | 46 | 291 | 0.0 | 0.0 | 0.00 | 0.00 | 0.00 | 61 | 988.8 |
| 20260504034612 | 46 | 285 | 0.0 | 1.0 | 0.00 | 0.00 | 0.00 | 67 | 988.8 |
| 20260504034108 | 46 | 288 | 1.0 | 1.0 | 0.00 | 0.00 | 0.00 | 66 | 988.9 |
| 20260504033607 | 46 | 282 | 1.0 | 1.0 | 0.00 | 0.00 | 0.00 | 60 | 988.8 |
| 20260504033103 | 47 | 279 | 1.0 | 1.0 | 0.00 | 0.00 | 0.00 | 60 | 988.8 |
| 20260504032600 | 47 | 284 | 1.0 | 1.0 | 0.00 | 0.00 | 0.00 | 59 | 988.8 |
| 20260504032057 | 47 | 283 | 2.0 | 2.0 | 0.00 | 0.00 | 0.00 | 59 | 988.9 |
| 20260504031554 | 46 | 287 | 1.0 | 1.0 | 0.00 | 0.00 | 0.00 | 60 | 989.3 |
| 20260504031050 | 46 | 290 | 1.0 | 2.0 | 0.00 | 0.00 | 0.00 | 64 | 989.1 |
| 20260504030548 | 46 | 283 | 1.0 | 1.0 | 0.00 | 0.00 | 0.00 | 66 | 989.2 |
| 20260504030043 | 46 | 287 | 1.0 | 1.0 | 0.00 | 0.00 | 0.00 | 64 | 989.3 |
| 20260504025541 | 47 | 277 | 2.0 | 3.0 | 0.00 | 0.00 | 0.00 | 66 | 989.3 |
| 20260504025038 | 47 | 282 | 6.0 | 8.0 | 0.00 | 0.00 | 0.00 | 63 | 989.2 |
| 20260504024535 | 48 | 210 | 2.0 | 6.0 | 0.00 | 0.00 | 0.00 | 61 | 989.2 |
| 20260504024032 | 48 | 275 | 3.0 | 3.0 | 0.00 | 0.00 | 0.00 | 55 | 989.2 |
| 20260504023528 | 48 | 199 | 4.0 | 6.0 | 0.00 | 0.00 | 0.00 | 54 | 989.2 |
| 20260504023024 | 48 | 266 | 4.0 | 6.0 | 0.00 | 0.00 | 0.00 | 55 | 989.2 |
| 20260504022520 | 48 | 254 | 5.0 | 6.0 | 0.00 | 0.00 | 0.00 | 55 | 989.2 |
| 20260504022017 | 48 | 228 | 3.0 | 3.0 | 0.00 | 0.00 | 0.00 | 55 | 989.1 |
| 20260504021514 | 48 | 236 | 5.0 | 6.0 | 0.00 | 0.00 | 0.00 | 55 | 989.2 |
| 20260504021012 | 48 | 234 | 4.0 | 6.0 | 0.00 | 0.00 | 0.00 | 57 | 989.2 |
| 20260504020508 | 48 | 264 | 4.0 | 4.0 | 0.00 | 0.00 | 0.00 | 58 | 989.3 |
| 20260504020005 | 48 | 176 | 2.0 | 3.0 | 0.00 | 0.00 | 0.00 | 59 | 989.3 |
| 20260504015501 | 48 | 223 | 4.0 | 6.0 | 0.00 | 0.00 | 0.00 | 59 | 989.5 |
| 20260504014956 | 47 | 278 | 4.0 | 4.0 | 0.00 | 0.00 | 0.00 | 59 | 989.2 |
| 20260504014453 | 47 | 253 | 7.0 | 9.0 | 0.00 | 0.00 | 0.00 | 59 | 989.1 |
| 20260504013950 | 47 | 301 | 1.0 | 2.0 | 0.00 | 0.00 | 0.00 | 61 | 989.3 |
| 20260504013449 | 46 | 232 | 4.0 | 6.0 | 0.00 | 0.00 | 0.00 | 60 | 989.3 |
| 20260504012944 | 46 | 296 | 2.0 | 2.0 | 0.00 | 0.00 | 0.00 | 62 | 989.4 |
| 20260504012443 | 45 | 340 | 0.0 | 1.0 | 0.00 | 0.00 | 0.00 | 64 | 989.4 |
| 20260504011940 | 46 | 285 | 0.0 | 0.0 | 0.00 | 0.00 | 0.00 | 68 | 989.2 |
| 20260504011436 | 46 | 284 | 1.0 | 1.0 | 0.00 | 0.00 | 0.00 | 63 | 989.3 |
| 20260504010932 | 46 | 276 | 1.0 | 1.0 | 0.00 | 0.00 | 0.00 | 60 | 989.2 |
| 20260504010428 | 46 | 295 | 0.0 | 0.0 | 0.00 | 0.00 | 0.00 | 62 | 989.0 |
| 20260504005924 | 46 | 287 | 1.0 | 1.0 | 0.00 | 0.00 | 0.00 | 59 | 989.1 |
| 20260504005421 | 46 | 292 | 1.0 | 1.0 | 0.00 | 0.00 | 0.00 | 59 | 989.2 |
| 20260504004919 | 46 | 274 | 1.0 | 1.0 | 0.00 | 0.00 | 0.00 | 58 | 989.1 |
| 20260504004417 | 47 | 292 | 0.0 | 1.0 | 0.00 | 0.00 | 0.00 | 58 | 989.2 |
| 20260504003913 | 48 | 296 | 1.0 | 1.0 | 0.00 | 0.00 | 0.00 | 54 | 989.2 |
| 20260504003410 | 48 | 317 | 1.0 | 1.0 | 0.00 | 0.00 | 0.00 | 54 | 989.0 |
| 20260504002906 | 48 | 253 | 5.0 | 6.0 | 0.00 | 0.00 | 0.00 | 53 | 989.0 |
| 20260504002403 | 48 | 11 | 4.0 | 6.0 | 0.00 | 0.00 | 0.00 | 53 | 988.9 |
| 20260504001901 | 47 | 298 | 1.0 | 2.0 | 0.00 | 0.00 | 0.00 | 53 | 988.9 |
| 20260504001358 | 46 | 280 | 0.0 | 0.0 | 0.00 | 0.00 | 0.00 | 60 | 988.8 |
| 20260504000854 | 46 | 283 | 0.0 | 0.0 | 0.00 | 0.00 | 0.00 | 63 | 988.7 |
| 20260504000354 | 46 | 283 | 0.0 | 0.0 | 0.00 | 0.00 | 0.00 | 59 | 988.7 |
| 20260503235849 | 47 | 283 | 0.0 | 0.0 | 0.00 | 0.00 | 0.00 | 57 | 988.5 |
| 20260503235347 | 48 | 287 | 0.0 | 1.0 | 0.00 | 0.00 | 0.00 | 57 | 988.4 |
| 20260503234844 | 48 | 281 | 1.0 | 1.0 | 0.00 | 0.00 | 0.00 | 55 | 988.5 |
| 20260503234342 | 48 | 280 | 0.0 | 1.0 | 0.00 | 0.00 | 0.00 | 57 | 988.2 |
| 20260503233839 | 48 | 280 | 1.0 | 1.0 | 0.00 | 0.00 | 0.00 | 52 | 988.4 |
| 20260503233335 | 48 | 288 | 0.0 | 0.0 | 0.00 | 0.00 | 0.00 | 52 | 988.4 |
| 20260503232831 | 49 | 287 | 0.0 | 0.0 | 0.00 | 0.00 | 0.00 | 50 | 988.1 |
| 20260503232329 | 49 | 289 | 0.0 | 0.0 | 0.00 | 0.00 | 0.00 | 50 | 988.2 |
| 20260503231827 | 50 | 324 | 1.0 | 1.0 | 0.00 | 0.00 | 0.00 | 50 | 988.1 |
| 20260503231324 | 49 | 272 | 2.0 | 2.0 | 0.00 | 0.00 | 0.00 | 49 | 988.1 |
| 20260503230819 | 49 | 294 | 0.0 | 1.0 | 0.00 | 0.00 | 0.00 | 50 | 988.0 |
| 20260503230317 | 50 | 285 | 1.0 | 2.0 | 0.00 | 0.00 | 0.00 | 48 | 988.2 |
| 20260503225814 | 50 | 266 | 4.0 | 6.0 | 0.00 | 0.00 | 0.00 | 46 | 988.2 |
| 20260503225310 | 50 | 275 | 4.0 | 4.0 | 0.00 | 0.00 | 0.00 | 46 | 988.0 |
| 20260503224807 | 50 | 291 | 0.0 | 0.0 | 0.00 | 0.00 | 0.00 | 47 | 987.9 |
| 20260503224304 | 50 | 288 | 4.0 | 4.0 | 0.00 | 0.00 | 0.00 | 46 | 988.2 |
| 20260503223802 | 50 | 294 | 0.0 | 1.0 | 0.00 | 0.00 | 0.00 | 49 | 988.2 |
| 20260503223259 | 50 | 291 | 1.0 | 2.0 | 0.00 | 0.00 | 0.00 | 47 | 988.4 |
| 20260503222755 | 50 | 19 | 1.0 | 1.0 | 0.00 | 0.00 | 0.00 | 49 | 988.4 |
| 20260503222253 | 50 | 276 | 2.0 | 2.0 | 0.00 | 0.00 | 0.00 | 48 | 988.2 |
| 20260503221751 | 51 | 230 | 3.0 | 4.0 | 0.00 | 0.00 | 0.00 | 47 | 988.2 |
| 20260503221249 | 51 | 265 | 4.0 | 4.0 | 0.00 | 0.00 | 0.00 | 47 | 988.1 |
| 20260503220745 | 51 | 283 | 3.0 | 3.0 | 0.00 | 0.00 | 0.00 | 49 | 988.2 |
| 20260503220242 | 50 | 271 | 3.0 | 4.0 | 0.00 | 0.00 | 0.00 | 48 | 988.4 |
| 20260503215739 | 51 | 287 | 1.0 | 2.0 | 0.00 | 0.00 | 0.00 | 51 | 988.4 |
| 20260503215236 | 51 | 292 | 2.0 | 3.0 | 0.00 | 0.00 | 0.00 | 49 | 988.2 |
| 20260503214734 | 50 | 270 | 1.0 | 2.0 | 0.00 | 0.00 | 0.00 | 48 | 988.5 |
| 20260503214230 | 49 | 292 | 2.0 | 2.0 | 0.00 | 0.00 | 0.00 | 52 | 988.4 |
| 20260503213729 | 49 | 280 | 2.0 | 2.0 | 0.00 | 0.00 | 0.00 | 52 | 988.5 |
| 20260503213226 | 49 | 282 | 3.0 | 3.0 | 0.00 | 0.00 | 0.00 | 48 | 988.5 |
| 20260503212722 | 50 | 282 | 2.0 | 3.0 | 0.00 | 0.00 | 0.00 | 51 | 988.4 |
| 20260503212220 | 49 | 263 | 3.0 | 3.0 | 0.00 | 0.00 | 0.00 | 50 | 988.2 |
| 20260503211718 | 49 | 267 | 1.0 | 2.0 | 0.00 | 0.00 | 0.00 | 51 | 988.2 |
| 20260503211213 | 49 | 314 | 2.0 | 2.0 | 0.00 | 0.00 | 0.00 | 49 | 988.2 |
| 20260503210709 | 49 | 289 | 1.0 | 2.0 | 0.00 | 0.00 | 0.00 | 51 | 988.2 |
| 20260503210207 | 49 | 227 | 6.0 | 7.0 | 0.00 | 0.00 | 0.00 | 48 | 988.2 |
| 20260503205702 | 49 | 271 | 3.0 | 4.0 | 0.00 | 0.00 | 0.00 | 48 | 988.4 |
| 20260503205158 | 49 | 253 | 7.0 | 9.0 | 0.00 | 0.00 | 0.00 | 48 | 988.4 |
| 20260503204655 | 49 | 284 | 5.0 | 8.0 | 0.00 | 0.00 | 0.00 | 48 | 988.1 |
| 20260503204153 | 50 | 211 | 4.0 | 6.0 | 0.00 | 0.00 | 0.00 | 47 | 987.9 |
| 20260503203649 | 50 | 289 | 2.0 | 3.0 | 0.00 | 0.00 | 0.00 | 47 | 988.2 |
| 20260503203147 | 50 | 58 | 2.0 | 2.0 | 0.00 | 0.00 | 0.00 | 47 | 988.2 |
| 20260503202644 | 51 | 280 | 1.0 | 1.0 | 0.00 | 0.00 | 0.00 | 48 | 988.1 |
| 20260503202142 | 50 | 289 | 1.0 | 2.0 | 0.00 | 0.00 | 0.00 | 48 | 988.1 |
| 20260503201640 | 49 | 285 | 3.0 | 3.0 | 0.00 | 0.00 | 0.00 | 45 | 988.1 |
| 20260503201137 | 49 | 291 | 2.0 | 2.0 | 0.00 | 0.00 | 0.00 | 47 | 988.4 |
| 20260503200633 | 49 | 273 | 3.0 | 3.0 | 0.00 | 0.00 | 0.00 | 46 | 988.4 |
| 20260503200130 | 50 | 259 | 5.0 | 7.0 | 0.00 | 0.00 | 0.00 | 45 | 988.4 |
| 20260503195627 | 50 | 253 | 2.0 | 2.0 | 0.00 | 0.00 | 0.00 | 44 | 988.4 |
| 20260503195124 | 50 | 219 | 3.0 | 6.0 | 0.00 | 0.00 | 0.00 | 44 | 988.4 |
| 20260503194621 | 51 | 291 | 1.0 | 1.0 | 0.00 | 0.00 | 0.00 | 44 | 988.5 |
| 20260503194116 | 50 | 286 | 2.0 | 3.0 | 0.00 | 0.00 | 0.00 | 43 | 988.5 |
| 20260503193613 | 52 | 279 | 4.0 | 6.0 | 0.00 | 0.00 | 0.00 | 41 | 988.4 |
| 20260503193108 | 53 | 268 | 2.0 | 3.0 | 0.00 | 0.00 | 0.00 | 39 | 988.5 |
| 20260503192604 | 52 | 292 | 3.0 | 4.0 | 0.00 | 0.00 | 0.00 | 37 | 988.6 |
| 20260503192100 | 52 | 298 | 1.0 | 2.0 | 0.00 | 0.00 | 0.00 | 39 | 988.6 |
| 20260503191557 | 53 | 248 | 4.0 | 6.0 | 0.00 | 0.00 | 0.00 | 39 | 988.6 |
| 20260503191054 | 50 | 251 | 3.0 | 4.0 | 0.00 | 0.00 | 0.00 | 41 | 988.5 |
| 20260503190551 | 52 | 246 | 3.0 | 6.0 | 0.00 | 0.00 | 0.00 | 38 | 988.7 |
| 20260503190048 | 53 | 264 | 3.0 | 4.0 | 0.00 | 0.00 | 0.00 | 35 | 988.8 |
| 20260503185544 | 52 | 160 | 2.0 | 2.0 | 0.00 | 0.00 | 0.00 | 37 | 988.7 |
| 20260503185044 | 52 | 259 | 3.0 | 3.0 | 0.00 | 0.00 | 0.00 | 35 | 988.9 |
| 20260503184540 | 51 | 18 | 5.0 | 8.0 | 0.00 | 0.00 | 0.00 | 35 | 988.9 |
| 20260503184037 | 51 | 292 | 2.0 | 3.0 | 0.00 | 0.00 | 0.00 | 40 | 989.0 |
| 20260503183534 | 50 | 269 | 5.0 | 6.0 | 0.00 | 0.00 | 0.00 | 38 | 989.1 |
| 20260503183031 | 51 | 297 | 2.0 | 3.0 | 0.00 | 0.00 | 0.00 | 38 | 989.2 |
| 20260503182529 | 54 | 290 | 5.0 | 9.0 | 0.00 | 0.00 | 0.00 | 34 | 989.3 |
| 20260503182027 | 50 | 346 | 1.0 | 1.0 | 0.00 | 0.00 | 0.00 | 36 | 989.3 |
| 20260503181523 | 53 | 281 | 5.0 | 7.0 | 0.00 | 0.00 | 0.00 | 37 | 989.3 |
| 20260503181020 | 53 | 338 | 1.0 | 1.0 | 0.00 | 0.00 | 0.00 | 45 | 989.2 |
| 20260503180517 | 52 | 293 | 4.0 | 6.0 | 0.00 | 0.00 | 0.00 | 35 | 989.2 |
| 20260503180014 | 53 | 279 | 4.0 | 4.0 | 0.00 | 0.00 | 0.00 | 40 | 989.4 |
| 20260503175512 | 51 | 49 | 4.0 | 8.0 | 0.00 | 0.00 | 0.00 | 38 | 989.5 |
| 20260503175009 | 49 | 256 | 3.0 | 3.0 | 0.00 | 0.00 | 0.00 | 42 | 989.6 |
| 20260503174506 | 50 | 263 | 4.0 | 6.0 | 0.00 | 0.00 | 0.00 | 37 | 989.6 |
| 20260503174002 | 50 | 222 | 4.0 | 7.0 | 0.00 | 0.00 | 0.00 | 39 | 989.5 |
| 20260503173457 | 51 | 257 | 2.0 | 3.0 | 0.00 | 0.00 | 0.00 | 35 | 989.6 |
| 20260503172954 | 52 | 301 | 3.0 | 4.0 | 0.00 | 0.00 | 0.00 | 36 | 989.4 |
| 20260503172452 | 52 | 333 | 2.0 | 3.0 | 0.00 | 0.00 | 0.00 | 40 | 989.6 |
| 20260503171948 | 50 | 316 | 2.0 | 3.0 | 0.00 | 0.00 | 0.00 | 38 | 989.7 |
| 20260503171445 | 50 | 295 | 3.0 | 4.0 | 0.00 | 0.00 | 0.00 | 41 | 989.6 |
| 20260503170943 | 49 | 290 | 1.0 | 1.0 | 0.00 | 0.00 | 0.00 | 50 | 989.5 |
| 20260503170438 | 49 | 293 | 1.0 | 1.0 | 0.00 | 0.00 | 0.00 | 45 | 989.7 |
| 20260503150831 | 42 | 293 | 2.0 | 4.0 | 0.00 | 0.00 | 0.00 | 51 | 990.5 |
| 20260503150327 | 45 | 283 | 3.0 | 3.0 | 0.00 | 0.00 | 0.00 | 45 | 990.8 |
| 20260503140251 | 40 | 269 | 2.0 | 2.0 | 0.00 | 0.00 | 0.00 | 53 | 990.7 |
| 20260503131221 | 42 | 323 | 2.0 | 3.0 | 0.00 | 0.00 | 0.00 | 59 | 990.5 |
| 20260503130719 | 42 | 249 | 3.0 | 4.0 | 0.00 | 0.00 | 0.00 | 58 | 990.6 |
| 20260503130215 | 42 | 227 | 2.0 | 3.0 | 0.00 | 0.00 | 0.00 | 60 | 990.8 |
| 20260503120141 | 37 | 293 | 2.0 | 2.0 | 0.00 | 0.00 | 0.00 | 75 | 990.6 |
| 20260503110609 | 35 | 263 | 2.0 | 2.0 | 0.00 | 0.00 | 0.00 | 81 | 990.5 |
| 20260503110106 | 35 | 92 | 0.0 | 2.0 | 0.00 | 0.00 | 0.00 | 81 | 990.3 |
| 20260503090456 | 32 | 295 | 0.0 | 0.0 | 0.00 | 0.00 | 0.00 | 90 | 989.9 |